Wind_Speed
12 12 12 12 12 12 12 12 12 12 12 12 14 15 15 15 14 9 6 5 5 5 5 5 5 3 2 2 4 5 6 6 7 10 11 10 10 9 10 10 10 11 11 12 10 9 8 6 5 3 3 3 4 5 5 3 2 1 1 3 2 2 2 2 4 3 2 0 1 3 7 4 4 6 9 8 8 15 12 5 9 7 2 8 14 19 24 20
12 12 12 11 11 11 11 12 12 12 12 12 13 14 14 15 15 12 7 4 4 4 4 4 4 4 2 1 3 4 5 6 8 11 10 12 14 13 12 12 11 10 10 10 8 7 6 4 4 3 4 4 4 4 4 2 1 0 2 2 2 3 2 2 3 1 1 1 2 3 5 3 3 6 13 7 7 14 8 6 11 9 8 12 17 22 22 21
12 12 11 11 11 11 11 11 12 12 12 11 12 13 13 13 14 14 10 6 3 3 3 3 4 3 2 1 2 3 4 6 8 8 10 15 17 15 14 14 12 10 8 6 4 4 3 2 3 3 3 3 3 3 3 2 2 1 2 2 2 3 1 1 4 2 1 2 4 4 4 2 2 5 13 9 9 10 6 9 11 13 17 18 22 24 21 22
12 12 12 11 11 10 10 10 11 12 12 11 11 11 11 11 12 13 12 9 6 4 3 4 3 2 2 1 1 2 1 4 5 6 11 15 17 17 16 15 12 11 8 5 4 5 6 3 3 4 3 2 2 2 2 2 2 1 2 2 3 3 1 1 4 3 1 2 4 5 5 3 3 3 13 14 10 3 8 17 16 17 24 24 26 24 23 23
13 13 13 12 12 11 10 9 10 11 11 12 11 10 10 9 9 10 11 10 8 7 6 5 4 3 2 1 2 3 2 1 3 7 11 14 16 17 16 15 13 11 10 8 6 7 8 5 3 2 2 1 1 1 2 4 3 0 1 2 3 5 2 1 3 4 3 1 4 4 4 5 4 3 16 20 10 7 16 22 19 20 26 27 27 26 25 24
13 13 13 13 13 12 11 10 10 10 10 11 11 10 9 8 8 7 8 8 8 8 7 7 7 5 3 0 2 5 3 1 5 8 11 15 14 15 15 14 13 12 11 10 8 8 9 8 5 2 1 1 2 3 2 4 5 1 2 2 2 6 2 2 4 4 4 3 1 2 5 7 2 4 14 21 13 11 18 21 19 21 25 26 27 27 26 24
13 13 13 13 13 13 12 12 10 10 10 10 11 11 9 8 8 6 5 6 7 7 7 8 8 8 6 2 1 5 6 3 7 9 10 14 13 13 14 14 13 13 12 11 11 9 9 10 8 4 1 2 3 4 3 3 5 1 2 1 1 5 1 3 2 3 4 4 1 3 7 6 2 4 7 16 13 8 11 18 19 22 26 26 26 27 25 23
13 13 13 13 13 13 13 12 12 11 10 10 10 11 10 9 8 6 6 5 6 6 6 7 8 8 8 4 1 2 7 6 8 9 9 13 14 13 14 14 13 13 13 12 11 9 9 11 11 6 2 3 4 2 3 3 2 2 2 0 2 3 3 3 0 2 2 3 3 6 7 5 1 1 2 9 11 9 10 18 20 23 28 26 26 26 24 23
13 13 13 13 13 13 13 13 13 12 11 11 11 11 10 10 9 7 6 6 6 6 6 7 8 8 8 6 4 3 6 10 10 9 9 11 13 14 14 14 14 14 13 11 10 10 9 9 10 7 5 6 4 2 6 4 1 4 4 3 3 0 3 3 2 1 1 2 2 5 6 5 3 2 1 5 10 12 14 20 22 25 29 28 27 25 23 23
13 13 13 13 13 13 13 13 13 12 12 11 11 11 11 10 10 9 7 6 6 6 6 6 7 7 7 8 5 1 5 11 12 9 8 8 9 13 14 15 14 14 14 11 10 11 8 4 4 4 6 7 4 2 7 4 2 5 8 8 6 2 2 2 2 2 2 3 2 2 5 6 4 1 2 4 13 16 18 23 25 27 29 29 27 25 24 21
12 13 13 13 13 13 13 13 13 13 12 12 11 12 12 11 10 9 8 7 7 6 6 6 7 7 7 8 4 3 5 11 13 9 7 7 7 9 11 13 13 13 14 12 11 11 6 5 5 3 4 5 3 2 5 3 3 8 11 8 7 4 2 2 2 3 2 2 3 1 4 7 4 0 2 6 17 19 21 26 28 28 29 29 28 26 25 22
12 12 13 13 14 14 14 13 13 13 13 12 12 12 12 11 10 10 9 8 8 7 7 7 7 7 8 10 8 6 7 11 13 9 7 6 5 6 7 9 11 11 12 10 9 8 6 7 8 7 6 6 3 1 3 4 6 8 8 4 5 5 3 2 2 3 1 1 2 2 3 6 2 2 2 9 20 22 23 28 28 29 28 29 28 27 26 24
12 12 12 13 14 14 15 14 14 13 13 12 12 12 13 12 11 10 9 8 8 8 7 7 7 8 8 9 7 8 10 12 13 10 8 7 6 6 7 8 9 10 9 8 7 5 5 6 8 10 11 7 1 2 3 5 7 5 4 3 2 5 4 3 2 2 3 2 1 5 1 5 5 6 3 11 22 23 23 26 27 28 28 28 29 28 27 25
13 12 12 12 13 14 15 15 15 14 13 13 12 12 13 12 11 9 8 8 7 8 8 8 8 7 7 7 4 9 12 14 15 12 10 10 8 7 8 8 10 10 8 6 5 5 7 6 8 11 12 8 3 5 4 4 4 2 2 3 2 2 3 4 3 6 3 2 3 5 2 5 6 6 5 11 21 23 21 23 24 26 27 27 28 28 28 27
13 12 12 12 13 13 15 15 15 15 14 14 12 13 13 11 10 8 7 7 7 8 8 8 8 7 8 7 5 9 12 15 16 13 12 11 8 7 5 6 7 8 7 7 6 7 8 6 7 8 6 5 6 5 2 3 2 2 1 2 2 1 4 6 3 9 5 2 4 5 1 5 5 6 7 9 18 22 19 21 23 24 25 26 27 28 28 27
14 12 12 12 13 13 14 15 15 16 15 14 13 12 12 10 9 7 7 8 8 8 7 7 6 5 6 5 5 9 12 15 14 13 13 11 9 6 3 4 6 6 7 7 6 7 6 5 7 6 3 4 5 4 3 3 3 3 1 2 2 2 3 4 2 8 6 2 3 3 1 3 3 5 7 9 17 21 18 20 22 23 25 25 27 28 28 27
15 13 12 12 13 13 14 14 15 16 15 14 13 12 11 9 7 6 7 7 5 3 4 5 5 5 5 4 5 9 14 14 12 12 12 11 11 8 4 5 6 6 6 7 8 9 6 4 4 4 1 2 3 4 3 2 3 3 1 1 3 3 2 2 3 6 7 3 2 3 2 5 3 4 3 8 16 22 20 21 23 23 23 24 25 27 27 28
16 15 13 13 14 14 14 14 15 15 15 14 12 10 9 6 5 5 4 4 4 1 3 5 4 2 4 8 6 6 10 10 9 10 12 11 12 12 9 6 4 5 5 5 7 8 7 4 2 1 2 2 2 4 2 4 3 2 2 1 3 2 3 4 3 4 8 4 3 3 3 8 7 4 2 5 12 20 21 23 25 23 22 23 24 25 26 28
17 16 15 14 15 15 15 15 15 16 15 13 10 8 6 4 3 3 4 5 6 3 3 5 6 2 3 8 9 7 7 6 5 9 12 13 13 14 14 10 5 4 3 1 3 5 5 2 2 0 1 1 4 5 5 6 5 5 5 4 3 4 5 5 4 4 8 5 4 7 5 7 7 4 4 6 8 15 20 21 23 22 21 22 23 25 26 28
18 17 16 16 16 15 15 15 14 16 14 10 8 6 3 3 2 2 4 9 12 12 12 12 12 12 10 7 9 8 6 6 6 8 11 13 15 14 15 13 7 3 2 3 2 2 4 3 2 5 6 6 6 6 5 5 5 5 4 3 4 5 6 3 2 4 8 5 4 7 5 6 7 5 5 8 8 11 15 16 20 22 20 22 24 26 27 29
20 19 18 17 16 16 16 14 14 15 13 8 5 3 2 3 2 2 7 11 15 17 20 20 18 20 18 12 11 9 6 6 6 7 8 12 16 13 11 10 3 2 3 3 3 1 3 4 5 8 8 6 6 6 5 4 3 2 2 3 4 4 6 3 1 4 7 4 3 4 4 8 8 5 5 7 6 10 15 15 18 22 21 22 25 27 29 29
22 21 20 19 17 16 15 14 13 13 10 5 2 2 3 5 3 5 7 9 15 16 17 19 19 21 20 17 17 14 8 5 5 7 8 13 17 12 8 7 4 2 1 3 3 2 1 4 9 10 6 5 4 5 3 3 2 1 1 1 4 4 4 3 2 1 5 3 2 3 5 8 8 6 6 8 9 12 18 19 20 22 22 23 25 27 28 28
23 23 22 20 18 16 15 14 13 10 6 2 1 2 2 2 4 7 6 8 14 14 13 17 20 22 22 19 20 17 10 7 7 8 11 15 17 15 10 7 5 3 1 3 5 2 2 5 7 7 6 6 3 3 3 2 2 2 3 2 5 4 2 3 2 1 2 1 1 3 4 5 5 3 5 9 13 14 18 21 21 21 23 26 27 29 29 28
23 23 23 22 19 16 15 15 11 7 5 3 3 4 3 2 5 7 6 6 8 9 10 12 14 19 22 18 16 17 14 11 8 9 14 18 17 14 10 8 6 4 3 5 7 5 6 7 3 3 6 7 3 3 5 3 4 4 6 6 7 5 4 3 2 3 1 2 2 4 2 5 3 3 4 5 8 10 14 18 20 21 22 24 26 27 29 30
23 23 24 24 21 17 16 13 7 5 6 4 4 5 4 4 7 8 5 2 5 6 4 6 9 14 18 15 12 15 14 12 14 13 15 21 20 12 7 8 6 4 5 5 6 4 8 7 3 1 1 5 3 4 5 6 3 4 6 11 11 7 6 5 6 5 3 3 2 3 2 5 4 3 5 2 2 6 8 11 17 22 22 23 24 25 29 30
24 23 23 24 23 19 15 10 7 8 9 4 4 5 4 5 7 7 2 3 3 4 1 4 6 7 13 15 14 13 6 9 18 18 15 19 21 13 5 5 3 3 6 5 3 3 4 2 4 3 3 3 3 5 5 8 3 3 5 8 7 6 9 9 9 5 2 2 3 2 4 3 5 4 4 2 3 6 6 7 13 20 22 24 26 27 28 29
24 24 24 24 23 21 17 12 10 11 9 5 5 5 5 5 4 4 2 4 3 3 3 4 4 6 10 14 20 15 2 6 14 18 19 17 19 15 6 4 2 3 5 4 1 3 2 3 3 3 2 2 2 5 5 8 7 3 6 5 8 9 10 12 10 5 2 2 3 3 4 0 4 5 4 2 5 6 6 7 10 17 22 24 27 28 29 30
25 25 25 24 22 21 19 16 13 11 7 6 6 6 6 4 3 1 3 3 2 1 3 3 3 6 8 14 25 15 3 8 7 13 23 19 18 14 5 7 7 5 5 6 3 5 2 4 4 5 3 1 5 6 6 10 5 6 3 6 6 6 7 8 7 3 1 2 2 4 2 1 4 6 4 1 4 6 9 10 10 15 21 24 26 28 29 30
25 26 27 26 23 20 19 17 14 10 7 5 5 7 6 4 3 1 4 1 1 1 2 4 4 6 8 13 20 11 4 7 3 8 20 19 20 13 3 8 8 5 4 4 5 6 3 5 6 6 3 3 8 7 7 10 5 3 5 9 7 6 6 5 5 3 3 3 2 5 4 2 4 5 3 2 3 7 9 9 9 15 22 24 26 27 28 30
24 26 27 28 24 19 18 16 11 6 5 4 4 7 6 3 1 4 1 2 1 1 2 4 4 5 9 9 8 7 3 3 2 8 13 13 19 14 2 5 5 5 2 2 2 6 4 3 2 4 6 7 6 4 3 7 7 7 8 8 8 6 5 4 3 3 4 2 5 7 7 4 1 5 3 2 4 6 6 5 7 13 20 24 27 27 27 29
23 25 27 28 24 19 17 14 8 5 5 4 4 7 8 3 3 4 3 3 1 2 3 1 1 4 9 6 3 5 2 0 4 10 7 5 10 8 2 3 3 4 2 4 3 5 6 3 1 5 10 7 2 1 1 2 5 7 5 5 6 3 4 4 4 3 4 3 6 5 5 5 1 5 4 5 6 5 5 6 7 11 18 25 28 28 27 29
23 23 26 26 22 18 16 13 9 6 5 4 4 8 8 2 1 2 4 3 2 1 1 0 1 3 7 3 1 4 3 1 3 6 5 4 5 6 4 4 4 3 2 4 3 5 4 5 3 3 7 8 5 1 2 5 5 5 4 5 5 2 3 2 2 1 2 5 3 3 4 2 4 7 5 6 8 6 6 8 9 11 19 26 28 29 28 28
22 23 24 22 19 15 12 10 9 6 5 5 6 6 6 3 3 5 4 2 0 2 1 0 2 1 6 4 2 3 3 2 4 3 3 4 4 5 3 3 6 4 1 4 1 1 3 6 4 2 4 8 8 4 2 1 1 3 4 5 4 3 3 1 2 1 2 4 1 3 2 1 4 5 4 6 6 6 7 10 12 13 17 22 27 30 29 28
21 22 20 16 13 10 7 7 7 6 7 9 8 5 5 3 4 3 3 3 2 2 2 0 3 1 5 5 4 4 3 3 4 4 2 3 3 5 4 3 5 4 3 3 1 3 3 5 4 4 2 6 8 7 7 5 3 3 3 5 5 5 4 3 3 2 3 3 1 0 1 2 2 3 5 5 4 4 3 5 8 11 14 16 22 28 29 28
20 18 14 10 9 7 6 4 6 8 10 12 7 4 4 4 3 1 2 4 2 2 3 2 1 1 1 2 4 4 4 3 3 5 3 4 4 5 4 5 6 4 4 3 2 3 3 5 7 4 2 7 7 5 7 7 3 2 2 5 3 5 5 2 3 5 4 1 0 1 2 3 3 4 5 3 2 3 4 2 1 3 6 9 16 24 28 29
17 13 7 5 6 7 9 5 3 9 14 13 6 1 4 3 2 2 1 2 1 2 4 4 2 2 1 2 3 3 3 2 3 3 2 2 3 4 3 4 6 7 5 5 3 1 2 5 7 2 1 5 7 6 6 5 3 1 2 3 4 4 7 4 2 1 2 2 1 1 2 4 3 2 4 4 3 4 5 3 2 2 4 8 16 21 24 29
16 11 5 3 5 7 9 6 2 11 15 11 4 4 4 2 3 3 1 2 2 2 4 3 1 1 1 1 3 4 3 2 2 3 2 2 3 5 5 3 5 10 10 7 3 2 4 4 6 1 3 6 5 6 4 2 5 5 2 5 3 2 5 4 2 3 4 1 3 2 2 4 2 1 3 5 2 1 3 2 2 3 6 10 14 18 21 25
17 12 5 3 4 5 7 5 6 13 12 6 1 3 2 2 2 1 2 2 2 1 3 1 3 1 2 1 3 4 5 4 3 3 3 2 4 4 6 4 6 12 15 11 4 2 3 2 7 3 3 3 1 4 4 3 3 4 4 4 4 2 1 1 2 1 1 1 3 3 3 3 3 3 3 2 3 4 3 2 1 3 6 10 13 17 19 21
17 11 4 3 3 3 5 5 10 11 6 3 2 3 2 2 4 5 6 4 1 1 0 3 3 1 0 2 3 3 4 5 5 4 3 3 4 3 5 5 6 10 14 13 7 2 2 1 4 5 3 0 3 3 3 1 3 3 3 2 2 2 3 2 2 2 3 2 2 3 4 3 5 5 4 5 7 6 4 4 3 5 8 11 14 17 20 20
15 7 3 3 3 4 6 8 9 6 3 2 4 2 1 2 4 6 7 5 2 1 2 3 2 1 2 2 2 2 2 4 5 4 3 4 4 4 4 6 3 4 10 11 5 1 2 2 3 5 3 1 0 2 6 7 3 3 3 2 1 2 2 2 1 1 3 4 2 0 2 5 6 4 5 7 7 7 7 5 5 8 10 12 14 17 20 21
11 5 2 3 6 8 7 6 4 2 2 2 2 2 2 3 3 6 9 8 5 5 6 4 3 3 3 3 3 2 1 2 5 4 2 4 4 3 6 11 7 5 7 5 1 2 3 2 3 3 3 1 4 4 5 9 8 6 5 5 4 3 4 3 0 2 2 4 3 3 2 6 6 3 5 6 6 6 8 8 6 9 12 12 13 16 19 21
10 3 0 2 5 4 2 2 0 1 2 1 2 2 4 5 3 5 9 8 6 6 6 4 4 5 4 4 5 3 1 2 4 4 3 5 6 4 7 11 13 10 8 3 2 5 4 3 2 4 4 5 6 4 2 5 6 6 3 3 4 4 5 5 3 3 1 3 2 3 1 6 5 2 3 6 5 5 7 9 8 9 11 12 13 16 19 21
11 6 2 2 3 3 1 1 2 2 1 3 4 4 5 4 3 4 5 4 4 4 3 3 4 4 5 5 4 3 4 4 3 5 4 4 6 10 12 10 10 8 5 1 1 4 4 3 2 4 5 4 5 5 4 3 5 6 1 1 4 3 3 5 5 3 3 2 2 3 1 6 5 2 2 4 5 3 3 7 8 9 11 12 13 15 18 21
13 9 1 1 3 5 3 0 1 1 3 3 3 4 6 4 4 4 3 3 4 2 1 3 5 5 5 4 4 4 5 3 3 3 3 2 3 8 10 8 7 6 6 4 4 8 6 2 3 1 3 5 4 3 5 5 1 3 2 2 4 4 6 5 2 3 3 4 4 4 2 6 5 3 4 3 0 1 2 5 7 9 10 12 14 14 16 18
12 6 1 4 1 6 3 2 2 1 2 3 3 4 5 4 3 6 7 7 7 5 3 5 5 5 4 2 2 3 3 2 2 1 1 1 3 3 1 3 5 8 10 9 9 13 7 3 5 5 4 3 3 3 3 2 1 1 2 3 4 5 7 5 3 4 1 3 4 4 4 6 5 4 4 3 1 2 2 4 7 8 10 12 14 14 14 14
7 3 4 6 4 4 5 7 6 2 1 2 3 3 2 2 5 8 7 5 5 5 7 8 6 3 4 3 2 4 3 1 1 1 1 1 3 2 3 2 3 5 8 11 15 13 4 2 6 8 8 8 8 8 6 4 5 3 4 6 5 5 7 6 5 3 4 4 3 5 6 3 5 4 4 4 2 3 3 6 9 10 9 11 12 12 12 11
4 2 3 5 5 4 4 8 10 5 2 2 2 2 3 3 4 7 5 3 7 9 6 6 1 0 3 4 2 3 2 2 2 1 2 2 3 4 6 5 3 4 3 10 17 10 4 2 6 8 9 9 7 7 6 6 7 7 7 8 5 5 8 8 5 5 6 6 3 7 5 4 6 7 7 7 5 5 6 9 11 12 11 10 10 10 11 10
4 2 3 3 3 1 2 6 10 6 4 4 2 1 4 4 4 5 4 6 9 10 5 2 3 5 6 4 3 2 0 2 2 1 2 1 2 4 5 2 2 6 6 6 8 4 5 4 5 6 7 7 3 4 4 4 6 5 8 9 7 7 9 8 6 7 8 8 6 6 8 7 8 8 9 9 8 7 8 11 12 11 11 10 10 10 11 10
4 2 3 4 2 3 4 8 9 6 4 4 1 3 4 4 5 4 4 5 6 7 6 4 8 11 9 4 3 2 1 1 2 3 2 1 1 2 3 2 3 7 7 4 1 1 4 2 3 5 3 4 3 4 4 1 3 4 5 8 9 9 9 7 5 6 6 5 5 7 10 9 8 7 7 5 4 5 6 8 10 10 11 11 12 11 11 10
6 3 5 7 5 5 6 7 6 4 4 3 2 3 4 4 6 6 4 3 4 5 6 6 11 14 8 2 3 3 0 1 3 4 3 3 0 1 1 1 2 6 7 3 1 1 2 2 1 5 3 3 4 2 1 2 2 5 4 4 7 7 5 3 3 4 3 1 1 4 6 7 6 3 3 3 6 7 7 8 10 11 12 13 13 13 11 10
5 3 3 5 4 4 5 5 4 2 2 3 3 3 4 3 6 8 5 3 2 4 5 8 12 11 6 4 5 4 6 5 5 8 5 3 2 3 3 3 4 2 6 2 1 3 3 2 1 5 5 3 4 4 4 4 3 3 1 3 7 6 4 3 3 5 6 4 5 6 3 6 6 2 5 6 9 10 9 10 12 13 14 14 14 13 11 10
7 3 2 2 2 3 5 4 4 2 1 3 4 4 4 5 8 9 4 3 6 8 9 11 10 7 4 5 6 10 18 17 16 16 12 9 8 6 4 4 6 4 1 1 1 2 3 4 1 3 4 4 4 3 4 5 4 2 5 5 8 5 4 3 1 4 7 7 8 5 6 7 5 5 5 4 6 8 11 14 16 16 15 14 13 12 10 9
Wind_Direction
20 19 19 17 17 15 14 14 12 13 14 12 7 6 10 10 4 356 331 304 298 305 323 336 338 331 302 234 227 229 229 227 221 221 214 186 167 167 171 176 182 182 182 184 184 187 191 205 228 232 250 296 318 321 335 316 289 347 73 107 142 178 206 195 169 187 164 137 282 16 24 64 106 143 141 133 136 137 142 121 148 176 336 174 167 156 161 163
16 16 14 12 10 8 8 8 8 8 9 11 9 8 13 15 12 12 4 329 302 310 330 340 343 338 333 269 220 232 237 234 235 228 197 176 179 177 173 172 179 190 189 192 194 191 196 215 231 238 257 290 314 321 340 316 290 62 107 101 180 196 208 166 154 183 84 3 314 11 23 52 93 148 155 139 133 142 129 110 136 131 119 150 158 157 162 163
14 12 10 8 5 2 0 359 1 1 1 6 8 9 14 19 19 21 23 17 359 342 353 2 356 345 349 32 208 235 246 252 253 229 187 181 184 178 179 177 178 190 196 203 209 199 204 254 258 240 251 280 295 313 339 311 272 231 104 85 239 221 233 171 151 140 57 337 340 11 6 346 16 159 167 153 150 158 149 146 141 135 141 152 160 162 163 165
11 10 8 5 2 359 355 352 351 352 352 354 2 8 11 18 22 25 29 34 41 38 33 26 19 357 352 68 183 216 256 273 247 195 179 184 183 182 184 184 185 191 199 208 216 212 212 240 261 239 251 280 264 273 295 246 222 228 130 169 225 193 221 265 165 174 283 322 326 340 338 326 358 178 173 149 140 199 199 180 172 160 158 159 164 166 167 170
6 6 5 3 1 357 353 349 344 343 343 342 348 358 5 12 18 23 27 32 40 43 42 36 34 11 349 107 182 182 102 45 182 163 172 181 184 186 185 188 188 188 195 200 208 214 213 228 259 249 257 285 214 222 262 214 189 191 212 236 202 165 178 320 168 195 238 270 310 324 344 332 353 162 171 157 153 215 207 194 186 176 169 166 168 169 171 176
3 1 -0 359 357 355 353 349 343 338 334 333 334 341 353 0 6 16 20 21 25 30 35 33 32 23 12 92 200 187 160 117 165 163 168 178 187 189 189 192 188 187 195 199 205 210 215 229 247 243 238 294 189 197 249 206 184 210 305 302 212 186 167 38 155 189 224 208 301 301 327 323 14 120 169 173 181 204 207 198 185 181 175 169 168 169 175 180
3 359 356 354 353 352 350 348 344 339 332 327 324 325 335 344 354 2 1 3 2 10 18 18 20 19 15 2 211 197 220 214 161 160 166 176 188 194 196 199 195 196 201 201 203 206 213 223 235 235 250 290 214 204 241 193 175 190 298 313 219 205 194 26 141 169 214 204 249 307 319 315 145 111 169 190 202 212 209 196 184 179 173 169 170 173 179 182
5 1 357 352 349 347 345 345 343 340 334 326 319 315 318 325 335 342 342 341 338 345 353 -0 5 4 9 10 6 244 232 204 154 151 162 175 187 195 201 203 201 205 209 207 204 207 215 223 232 231 232 253 231 202 179 144 165 208 230 253 129 195 246 318 210 146 222 232 285 305 309 300 259 23 169 193 203 207 196 186 181 174 171 172 174 176 181 185
4 0 357 352 348 344 341 339 338 338 335 328 320 310 309 312 317 324 327 327 326 327 328 338 345 347 359 357 349 314 224 188 163 154 158 174 187 196 205 207 205 209 215 211 204 209 220 228 233 239 252 251 260 226 164 141 243 209 168 114 102 162 273 265 229 188 255 281 316 319 311 306 319 324 213 178 179 187 183 177 177 173 172 175 177 180 183 187
357 356 355 351 348 344 338 335 333 333 333 328 321 311 305 302 305 309 314 317 314 317 320 322 330 335 339 343 355 298 209 186 178 169 159 171 187 197 207 212 211 214 218 214 209 215 221 229 247 275 272 268 285 224 166 157 216 161 127 97 81 70 323 265 236 270 282 290 311 336 313 315 336 311 237 179 168 174 171 169 174 174 175 179 181 184 186 190
346 348 348 347 345 342 337 333 329 327 328 326 319 311 303 300 299 299 302 306 304 309 317 318 322 324 319 323 313 203 186 181 183 178 168 174 189 201 210 214 214 216 219 217 218 225 234 251 264 293 291 291 299 180 153 160 149 134 125 87 48 64 39 305 262 295 315 306 277 228 299 317 344 210 234 174 170 175 170 166 171 176 179 182 184 187 190 195
334 337 339 340 340 338 335 331 327 324 324 321 316 308 303 301 296 293 294 295 297 297 305 313 315 314 309 302 279 221 172 167 174 174 174 176 182 200 219 226 224 223 222 220 221 230 246 264 264 268 292 306 308 135 140 143 128 123 120 80 8 25 21 238 231 278 248 325 265 166 327 316 304 238 245 168 172 176 171 167 172 178 182 185 187 190 193 198
325 329 331 333 334 334 331 328 325 323 321 318 313 307 302 302 297 293 288 285 289 290 296 304 305 309 304 295 278 209 180 170 172 170 168 170 171 186 209 221 226 230 231 226 223 236 255 280 277 270 287 298 285 114 128 119 114 107 75 82 27 11 345 236 181 169 183 316 228 157 276 288 266 257 203 163 172 170 167 169 174 179 183 187 190 193 197 200
320 321 324 328 329 330 327 325 323 321 319 317 313 308 303 302 299 293 287 281 280 281 285 290 295 303 291 282 254 197 188 181 181 176 165 170 175 183 202 210 212 223 233 224 215 243 257 280 287 277 285 274 193 123 103 70 83 94 46 55 49 22 306 275 161 145 154 293 194 152 237 266 277 264 175 160 174 170 166 172 177 181 185 191 193 197 201 203
320 316 319 323 326 328 325 322 321 320 317 317 316 311 305 303 301 297 286 275 269 272 275 281 287 294 290 280 231 201 194 191 193 185 175 179 183 182 199 218 213 213 223 219 219 250 262 273 276 269 272 228 160 113 56 13 27 50 53 334 351 171 272 302 186 162 156 265 188 149 244 264 282 254 191 168 179 175 171 175 181 186 189 195 199 201 206 209
328 318 316 319 324 326 325 320 319 320 316 318 322 314 307 304 300 292 282 274 270 268 267 271 270 275 290 275 215 205 204 202 200 196 193 191 192 187 174 214 211 204 217 226 240 257 262 268 267 255 210 157 134 99 49 22 353 3 81 219 256 193 267 319 225 189 169 123 205 188 250 253 304 274 214 184 185 182 178 181 185 189 193 197 202 206 210 213
340 329 320 321 324 325 326 321 319 320 316 320 327 319 309 303 292 280 277 272 257 253 260 257 251 265 266 224 206 217 213 210 209 209 206 200 201 198 192 203 201 205 225 242 258 262 252 241 247 244 165 112 110 95 65 345 304 317 31 224 245 213 220 291 281 214 177 137 219 225 272 241 283 323 226 190 193 192 187 189 191 192 196 199 202 207 212 215
348 339 330 326 325 326 326 323 321 321 319 324 333 325 309 300 287 271 256 236 220 222 275 243 212 265 247 208 207 217 209 212 220 222 223 217 209 207 212 213 204 218 229 239 248 243 230 221 184 208 24 46 108 114 145 239 217 192 184 224 264 258 231 235 265 200 170 155 196 194 256 251 264 320 277 213 200 199 199 196 196 195 198 202 204 206 210 214
350 344 337 331 328 327 325 324 324 323 323 330 339 331 306 293 287 249 206 209 220 226 259 220 184 194 249 209 202 187 183 207 235 234 230 223 214 214 218 224 244 240 199 185 234 205 184 143 82 206 263 174 187 169 184 201 175 170 175 171 209 258 256 221 241 211 166 150 195 198 228 251 255 268 261 248 210 207 211 204 199 199 201 205 208 209 211 214
348 345 340 335 330 327 324 324 326 325 327 335 344 337 307 316 327 233 245 248 241 244 260 255 239 251 263 237 212 199 204 244 257 239 227 218 212 211 217 228 251 257 177 156 207 195 156 159 204 222 214 203 205 196 191 185 166 157 159 189 212 242 270 237 244 231 164 148 216 207 230 268 258 248 245 239 218 216 221 210 203 203 203 206 209 211 213 218
345 343 342 338 333 330 324 322 326 327 328 338 1 14 35 40 41 295 296 278 256 254 261 262 257 258 256 247 234 231 246 264 255 229 218 214 206 202 213 217 214 243 228 170 162 76 126 185 223 223 216 198 190 191 198 208 193 167 175 242 252 234 256 258 266 228 173 162 248 196 220 260 251 234 235 228 209 217 220 210 206 206 206 208 209 212 215 220
342 340 340 338 336 334 325 320 323 323 324 339 28 67 84 62 23 311 308 287 279 275 262 254 253 251 246 240 240 244 255 261 245 216 206 205 201 199 193 175 156 201 237 115 129 12 8 237 238 227 199 139 169 193 204 252 260 273 159 269 281 243 248 295 356 240 177 174 264 187 200 250 255 236 223 216 207 218 219 213 210 208 207 208 209 211 214 217
340 338 338 336 337 335 327 321 318 316 318 314 260 205 162 45 349 316 295 270 289 291 260 245 242 239 235 233 236 236 232 235 236 213 202 200 197 197 182 157 163 179 125 130 159 170 242 246 236 209 160 143 198 198 162 266 274 221 167 156 268 236 201 288 343 79 163 144 175 165 196 262 275 257 237 223 216 219 221 219 220 216 211 209 209 211 213 214
338 337 335 333 334 335 330 322 315 311 307 294 266 227 223 300 318 316 290 257 289 292 264 247 235 234 229 225 227 220 215 224 229 206 199 198 190 191 193 173 160 169 200 180 165 188 238 247 229 140 143 159 207 196 156 207 267 241 195 196 248 235 186 219 159 109 5 338 98 99 17 302 277 228 247 243 223 223 222 219 224 226 220 213 210 212 214 216
337 335 334 332 330 332 332 324 314 309 312 300 253 226 232 286 316 324 306 281 298 285 268 229 221 230 218 208 210 208 207 223 225 206 198 202 190 178 190 180 165 196 215 172 150 213 256 254 222 237 162 147 189 241 185 186 242 290 219 208 227 214 153 140 134 107 39 312 234 106 49 295 304 250 239 249 218 224 222 216 222 226 225 220 214 212 215 218
338 334 333 332 328 329 331 324 311 312 316 295 233 226 245 283 323 326 328 43 319 267 187 177 201 204 194 194 190 181 180 226 224 212 201 207 198 180 168 172 165 200 189 155 151 226 262 230 169 204 240 172 193 263 216 174 156 309 243 200 192 160 135 141 149 132 106 229 254 123 149 263 319 303 255 235 201 221 227 221 223 223 224 224 220 216 215 215
340 336 333 331 329 327 324 317 309 311 312 286 248 239 250 273 321 320 352 32 313 252 137 166 189 174 183 185 171 157 131 214 210 214 210 207 198 187 183 187 163 197 172 121 169 238 189 155 125 140 189 171 202 261 223 161 133 251 253 139 136 146 153 166 158 143 177 176 352 23 124 180 310 282 279 225 193 226 240 231 229 223 222 224 223 220 218 214
338 336 331 330 329 322 315 310 307 307 298 279 260 238 238 255 273 296 70 42 286 185 127 167 161 169 176 171 169 160 138 168 168 214 212 206 196 185 189 204 183 181 171 125 189 256 182 166 176 148 130 159 218 237 185 149 152 244 240 96 127 150 149 160 140 110 106 96 349 308 137 117 277 276 320 62 188 234 237 227 228 223 220 222 222 220 219 217
335 334 330 327 325 316 307 305 305 302 284 273 253 228 221 230 250 81 84 85 253 61 112 148 133 168 160 159 180 185 145 159 131 194 195 195 197 191 197 216 183 156 188 151 191 244 229 202 194 154 149 218 231 239 172 160 192 206 106 77 63 62 79 89 96 97 55 50 249 237 182 150 273 279 330 47 217 237 232 225 225 224 222 220 221 219 217 217
332 332 327 323 321 313 304 304 304 297 277 274 242 207 185 178 105 76 115 245 256 8 74 145 147 163 149 145 200 222 172 172 105 145 168 179 191 194 174 195 159 123 205 330 233 246 268 265 200 171 211 218 222 249 177 168 164 124 95 81 73 54 57 60 55 85 67 350 259 222 188 152 301 281 250 190 222 224 215 217 222 225 225 222 220 217 213 213
330 330 326 320 316 309 304 304 302 286 266 272 235 181 156 132 71 100 192 252 291 331 35 130 191 135 152 153 205 211 191 307 124 137 153 158 177 191 142 147 135 87 358 328 292 295 312 304 258 222 223 206 162 277 12 92 123 113 88 97 98 30 22 38 358 39 88 258 269 231 179 133 183 262 243 229 249 234 198 206 212 215 222 222 219 216 213 211
329 329 326 318 311 305 300 295 284 264 248 248 206 170 147 113 32 173 233 316 341 265 26 172 255 138 162 176 255 194 163 149 163 148 159 147 157 192 188 177 167 89 337 258 256 326 305 249 259 266 227 187 139 151 334 25 53 84 87 90 85 22 18 25 322 6 180 244 254 164 134 112 231 250 256 249 254 244 221 222 222 218 219 220 216 213 212 211
331 332 327 317 313 308 298 284 266 237 217 200 178 155 115 98 222 215 246 313 193 246 340 154 292 118 153 171 249 201 144 182 204 168 155 140 157 210 233 205 170 142 191 207 196 335 294 290 295 313 249 191 153 142 191 346 81 138 142 122 110 98 73 329 276 304 257 263 269 146 147 312 274 268 249 239 255 265 259 247 245 243 236 228 218 209 207 209
334 337 328 322 327 324 308 280 244 205 191 180 157 119 105 150 227 221 233 254 250 306 336 305 322 5 149 182 222 176 150 231 193 142 129 126 154 220 247 232 186 138 129 158 162 179 205 294 239 196 226 182 168 171 169 150 145 187 178 131 136 149 147 202 217 193 232 259 341 9 189 186 227 262 248 252 288 316 311 268 255 254 251 242 221 204 200 203
339 341 331 335 355 360 352 306 221 190 181 168 129 90 158 196 242 206 214 254 290 329 309 299 53 91 183 258 254 188 174 224 169 126 154 164 176 206 205 214 198 145 128 165 226 175 169 256 246 240 207 161 171 187 148 119 113 222 152 107 145 182 153 152 190 178 187 182 82 255 225 208 217 263 291 319 5 52 58 68 200 239 241 226 204 196 194 196
341 346 338 353 14 14 4 350 201 185 176 156 113 148 199 212 215 175 218 281 326 342 331 336 62 106 287 312 292 239 185 178 150 139 194 199 210 208 195 219 197 171 157 165 211 180 143 263 273 296 243 192 190 181 149 149 177 172 124 163 212 177 124 114 189 180 80 130 242 269 273 301 317 284 309 9 58 55 42 55 93 120 168 177 183 186 190 193
344 353 347 347 5 7 360 359 146 177 173 149 125 206 216 249 199 179 302 344 321 355 37 8 327 191 213 302 289 233 165 124 164 180 214 239 240 203 200 236 187 186 194 179 200 208 153 268 289 215 224 259 220 159 104 106 138 125 183 204 195 112 92 106 140 18 40 187 272 335 291 295 339 262 311 2 30 332 358 23 77 116 152 165 176 183 186 191
344 349 338 326 355 3 -0 18 136 162 162 139 173 229 219 249 222 232 324 342 315 7 73 171 255 250 164 193 277 226 168 173 194 184 180 219 253 201 176 203 192 198 203 185 195 252 150 259 297 264 214 286 349 112 70 23 86 120 178 166 118 117 127 100 131 127 91 199 284 322 316 271 206 220 281 307 224 238 280 305 112 152 175 173 177 185 188 190
340 341 352 18 20 18 33 90 140 150 137 128 221 245 225 244 280 304 323 330 281 144 136 227 233 329 241 201 238 231 183 181 177 177 173 179 239 223 172 192 208 204 195 178 184 237 120 159 288 286 245 292 36 88 150 241 358 48 112 120 79 128 156 155 143 158 151 148 253 309 335 285 226 218 200 204 218 216 222 237 212 201 200 190 185 189 192 193
336 339 25 42 67 104 104 118 136 132 107 165 202 236 261 268 280 292 312 319 286 205 250 223 182 299 276 252 250 231 202 179 163 183 206 176 208 248 203 191 196 181 175 173 179 180 92 141 239 286 306 108 164 212 178 178 165 99 124 180 245 80 117 150 102 85 126 138 168 229 312 273 251 209 185 208 219 203 197 205 210 207 203 202 197 194 197 199
350 0 40 66 112 127 123 129 135 106 113 198 221 230 277 296 283 287 292 285 259 243 240 222 210 229 240 275 280 251 192 175 168 181 221 198 201 245 218 197 183 136 139 152 194 193 183 161 188 275 327 177 236 251 190 176 164 152 169 186 175 133 120 121 20 310 88 119 159 157 210 271 262 197 198 218 214 207 200 188 195 207 203 206 204 200 204 206
6 7 301 111 135 138 107 124 150 75 131 218 267 255 288 301 280 282 286 273 248 237 236 235 231 223 218 235 250 244 206 197 183 178 207 210 191 211 227 200 179 156 137 145 211 177 156 118 148 257 253 221 250 289 193 176 139 121 143 163 142 132 127 128 184 235 95 86 132 125 169 269 264 206 222 244 249 252 214 189 192 206 205 207 206 204 209 212
353 334 272 201 229 232 91 27 338 4 211 262 292 284 287 287 254 268 282 264 242 226 216 230 220 213 223 218 212 217 206 199 187 182 203 215 202 219 222 190 165 156 137 139 221 153 136 116 156 272 304 306 306 342 13 36 93 108 127 153 146 158 142 143 169 169 129 150 148 92 255 268 280 304 298 270 267 279 216 190 194 203 205 207 208 207 211 216
340 326 269 111 257 223 193 241 254 296 292 297 323 305 286 266 242 268 273 238 240 224 192 236 222 215 228 201 178 210 208 191 200 200 191 187 223 236 218 182 167 171 176 203 181 166 177 155 130 191 325 339 336 2 1 348 47 155 206 182 157 125 101 110 123 86 103 189 155 120 218 256 276 317 350 0 70 136 165 184 199 209 207 207 210 213 214 218
343 325 341 24 314 191 163 83 132 185 315 327 315 300 296 281 270 294 289 260 252 239 228 262 252 228 238 212 182 233 218 183 229 253 136 211 275 302 136 159 182 193 217 230 179 163 174 163 139 160 194 216 207 201 234 252 203 203 199 174 163 129 124 141 125 82 113 193 143 142 210 261 291 315 340 348 86 143 167 187 208 218 214 212 212 213 218 220
7 4 347 358 35 116 92 58 52 41 19 4 315 282 312 317 301 312 307 272 275 269 242 253 264 242 251 259 253 260 247 174 46 76 108 257 267 294 349 312 232 227 248 218 175 155 128 158 166 166 183 195 195 209 215 158 144 195 193 174 172 142 127 120 113 137 177 160 171 218 205 228 278 266 273 281 236 199 214 207 212 217 215 216 212 209 216 220
36 45 359 351 5 35 54 39 30 19 325 335 311 270 323 333 317 329 334 311 330 330 274 238 216 92 256 242 215 243 264 31 37 117 175 244 264 285 311 296 258 316 316 179 169 148 85 182 183 174 200 213 203 215 216 158 165 190 173 166 175 154 133 124 146 187 157 129 240 253 188 175 243 233 227 238 221 212 222 214 211 213 214 216 214 211 213 215
35 40 49 26 338 320 29 357 351 346 313 299 276 296 339 358 357 348 327 304 326 351 354 322 11 350 298 254 189 203 68 40 355 274 184 236 302 326 331 296 266 354 25 139 168 136 118 177 179 169 220 247 264 279 259 167 161 165 158 163 161 161 162 159 180 192 151 147 226 225 168 186 237 227 216 219 207 201 207 206 206 208 212 217 216 213 212 210
32 28 21 16 340 256 296 316 317 322 317 299 311 0 358 7 1 341 311 305 322 2 24 355 329 331 317 275 192 165 135 140 259 265 200 193 333 11 5 307 301 354 34 82 333 62 133 175 172 149 196 272 292 297 288 203 147 132 153 170 163 167 175 165 177 188 157 162 208 178 174 208 233 219 215 222 202 186 182 190 201 204 208 215 214 210 210 206
38 32 350 348 332 299 312 320 320 333 336 338 12 359 350 9 2 334 299 273 294 330 12 359 326 326 325 311 119 114 348 218 221 244 190 145 131 192 159 210 262 342 14 58 337 339 133 178 166 110 111 288 309 2 352 291 182 143 133 151 150 147 149 130 132 151 140 121 62 126 171 231 255 221 172 144 155 160 162 180 198 207 210 212 209 206 207 205
56 69 0 342 321 325 342 334 334 0 355 2 19 350 343 359 355 334 289 229 276 318 350 348 326 321 327 8 69 55 343 316 268 269 246 192 246 228 180 170 181 335 355 15 352 357 64 121 45 77 111 251 311 53 60 22 59 99 72 158 155 147 156 179 175 175 177 160 106 99 158 238 254 182 124 135 156 162 175 191 200 209 214 213 209 206 206 205
50 76 65 11 305 337 4 337 331 20 16 355 8 352 330 323 340 341 310 308 344 335 334 335 327 321 332 10 25 346 326 313 294 291 288 280 283 263 224 190 167 164 342 26 45 10 92 120 122 104 132 243 292 83 94 70 75 293 276 194 171 162 160 164 216 215 188 148 132 156 207 221 208 154 134 142 161 174 193 202 205 209 212 214 214 211 212 213
Height
1515 1514 1513 1513 1512 1511 1511 1510 1509 1508 1508 1507 1506 1505 1504 1502 1501 1500 1499 1499 1499 1499 1499 1499 1498 1498 1498 1498 1498 1499 1499 1499 1499 1499 1499 1498 1499 1500 1501 1501 1502 1503 1504 1504 1505 1505 1505 1506 1506 1507 1507 1508 1508 1508 1508 1508 1508 1508 1511 1515 1518 1520 1517 1513 1514 1513 1512 1512 1511 1510 1509 1510 1512 1513 1513 1514 1516 1516 1518 1519 1519 1520 1519 1520 1522 1523 1525 1527
1515 1514 1514 1513 1512 1511 1511 1510 1509 1508 1507 1507 1506 1505 1504 1503 1501 1500 1499 1498 1498 1498 1498 1498 1498 1498 1498 1498 1498 1498 1498 1498 1498 1498 1498 1498 1499 1500 1500 1501 1502 1503 1504 1504 1505 1505 1506 1506 1506 1507 1507 1508 1508 1507 1508 1508 1508 1509 1512 1515 1516 1516 1513 1510 1511 1510 1510 1512 1511 1510 1510 1511 1512 1512 1513 1515 1517 1517 1518 1520 1520 1520 1521 1522 1523 1525 1526 1527
1515 1515 1514 1513 1512 1511 1511 1510 1509 1508 1507 1507 1506 1505 1504 1503 1502 1500 1499 1499 1498 1498 1498 1498 1498 1497 1498 1498 1498 1498 1498 1498 1497 1497 1497 1497 1498 1499 1500 1501 1502 1503 1504 1505 1505 1505 1506 1506 1507 1507 1508 1508 1508 1508 1508 1508 1508 1509 1511 1515 1514 1511 1509 1509 1510 1510 1510 1511 1511 1511 1511 1511 1511 1512 1512 1514 1517 1517 1518 1519 1519 1520 1521 1522 1524 1525 1527 1528
1515 1514 1513 1513 1512 1511 1510 1510 1509 1508 1507 1506 1506 1505 1504 1503 1502 1501 1500 1499 1498 1498 1498 1498 1498 1497 1497 1497 1498 1498 1497 1497 1496 1495 1496 1497 1498 1499 1500 1501 1502 1503 1504 1505 1506 1506 1506 1506 1507 1507 1508 1508 1508 1508 1508 1508 1509 1509 1511 1514 1511 1508 1510 1509 1509 1510 1510 1511 1511 1511 1511 1511 1511 1512 1512 1513 1518 1520 1517 1515 1516 1517 1519 1521 1523 1525 1526 1528
1515 1514 1513 1512 1511 1511 1510 1509 1508 1508 1507 1506 1505 1505 1504 1504 1503 1502 1501 1500 1499 1498 1498 1498 1498 1497 1497 1497 1498 1497 1498 1500 1496 1495 1496 1497 1498 1499 1500 1501 1502 1503 1504 1505 1505 1506 1506 1506 1507 1507 1508 1508 1508 1509 1508 1507 1508 1510 1510 1510 1509 1509 1510 1510 1509 1510 1511 1511 1511 1511 1511 1512 1511 1511 1511 1511 1516 1516 1513 1513 1515 1515 1517 1519 1521 1524 1526 1528
1515 1514 1513 1512 1511 1510 1509 1509 1508 1507 1506 1506 1505 1505 1504 1503 1503 1502 1501 1501 1500 1499 1498 1498 1498 1497 1497 1497 1497 1496 1498 1500 1496 1495 1497 1497 1498 1499 1500 1501 1502 1503 1503 1504 1505 1505 1506 1506 1507 1507 1508 1508 1509 1509 1508 1507 1508 1511 1510 1508 1508 1508 1509 1510 1510 1510 1510 1511 1511 1511 1511 1511 1510 1511 1511 1510 1511 1511 1511 1513 1516 1516 1517 1519 1521 1524 1526 1527
1515 1514 1513 1511 1510 1510 1509 1508 1507 1506 1506 1505 1504 1504 1504 1503 1503 1502 1501 1501 1500 1499 1499 1498 1498 1497 1497 1496 1497 1496 1496 1496 1495 1496 1496 1497 1498 1499 1500 1501 1502 1503 1503 1504 1505 1505 1506 1506 1506 1507 1508 1509 1508 1508 1508 1507 1508 1511 1512 1509 1509 1509 1509 1510 1510 1510 1511 1511 1511 1511 1511 1511 1511 1512 1512 1511 1511 1512 1512 1514 1516 1518 1519 1521 1522 1524 1525 1527
1515 1514 1512 1511 1510 1509 1508 1507 1506 1506 1505 1504 1504 1503 1503 1503 1502 1502 1501 1501 1500 1499 1499 1498 1497 1497 1497 1496 1496 1496 1496 1495 1495 1496 1496 1497 1498 1498 1499 1500 1502 1503 1503 1504 1504 1505 1506 1506 1506 1507 1508 1508 1507 1507 1507 1508 1509 1511 1511 1510 1509 1509 1510 1510 1510 1511 1511 1511 1512 1512 1511 1511 1511 1511 1511 1511 1511 1512 1513 1514 1517 1519 1520 1522 1523 1524 1526 1527
1514 1513 1512 1511 1510 1509 1507 1506 1506 1505 1504 1503 1502 1502 1502 1501 1501 1501 1501 1500 1500 1499 1498 1498 1497 1497 1496 1496 1496 1496 1495 1495 1496 1496 1497 1497 1498 1498 1499 1500 1501 1502 1502 1503 1504 1505 1505 1505 1506 1506 1507 1506 1506 1506 1506 1509 1511 1509 1509 1510 1509 1510 1510 1510 1511 1511 1512 1512 1512 1512 1512 1511 1511 1511 1511 1510 1511 1512 1512 1515 1517 1518 1520 1522 1523 1525 1526 1528
1514 1513 1512 1511 1509 1508 1507 1506 1505 1504 1503 1502 1501 1501 1500 1500 1500 1500 1500 1500 1499 1498 1498 1497 1497 1496 1496 1496 1496 1496 1494 1494 1495 1496 1497 1497 1498 1498 1499 1500 1501 1501 1502 1503 1504 1504 1504 1504 1505 1506 1506 1505 1505 1506 1506 1509 1510 1508 1508 1509 1510 1511 1511 1511 1511 1511 1512 1512 1512 1514 1513 1511 1511 1512 1513 1511 1510 1511 1512 1515 1517 1518 1520 1522 1523 1525 1526 1528
1513 1512 1511 1510 1509 1508 1506 1505 1504 1503 1502 1501 1500 1499 1499 1499 1499 1499 1499 1498 1498 1498 1497 1497 1497 1496 1496 1495 1496 1495 1493 1493 1495 1495 1497 1497 1498 1498 1499 1500 1500 1501 1502 1503 1503 1504 1504 1505 1506 1506 1507 1506 1505 1506 1506 1506 1508 1507 1508 1510 1511 1512 1512 1512 1511 1511 1512 1512 1513 1513 1513 1511 1511 1513 1512 1510 1511 1511 1512 1515 1517 1518 1520 1522 1523 1525 1526 1528
1512 1511 1510 1509 1508 1506 1505 1504 1503 1502 1501 1500 1499 1498 1498 1498 1497 1497 1497 1497 1497 1497 1497 1496 1496 1496 1495 1495 1494 1493 1492 1493 1494 1495 1496 1496 1497 1498 1499 1500 1501 1501 1502 1503 1503 1504 1505 1505 1506 1507 1507 1507 1506 1507 1507 1506 1507 1508 1508 1512 1514 1512 1513 1513 1512 1513 1513 1513 1512 1513 1516 1515 1512 1513 1510 1510 1511 1512 1513 1515 1517 1518 1520 1522 1523 1525 1526 1527
1511 1510 1509 1508 1507 1505 1504 1503 1502 1501 1500 1499 1498 1497 1496 1496 1496 1496 1496 1496 1496 1496 1496 1495 1495 1495 1494 1493 1491 1491 1492 1493 1493 1494 1495 1496 1497 1497 1498 1499 1500 1501 1502 1503 1504 1505 1506 1506 1506 1507 1507 1507 1507 1508 1508 1507 1507 1509 1509 1513 1517 1517 1516 1513 1512 1514 1514 1515 1512 1515 1524 1521 1512 1511 1510 1510 1512 1512 1514 1515 1517 1518 1520 1522 1523 1525 1526 1527
1510 1509 1508 1507 1506 1504 1503 1502 1501 1500 1499 1498 1497 1496 1495 1495 1495 1494 1494 1495 1495 1495 1494 1494 1494 1494 1493 1492 1490 1491 1491 1492 1493 1494 1494 1495 1496 1497 1497 1498 1499 1500 1501 1503 1504 1505 1505 1506 1507 1506 1507 1507 1506 1506 1508 1509 1509 1511 1513 1515 1520 1523 1519 1513 1513 1514 1515 1516 1512 1516 1527 1522 1512 1511 1510 1511 1512 1512 1514 1515 1517 1519 1520 1522 1523 1524 1525 1526
1509 1508 1507 1506 1505 1504 1502 1500 1499 1498 1497 1496 1495 1494 1494 1493 1493 1493 1493 1493 1493 1493 1493 1493 1493 1493 1492 1490 1489 1490 1490 1491 1492 1493 1494 1495 1496 1496 1497 1497 1499 1500 1501 1502 1503 1504 1505 1506 1506 1506 1506 1505 1506 1508 1511 1513 1512 1513 1518 1523 1525 1526 1521 1514 1512 1513 1515 1516 1513 1517 1526 1521 1513 1511 1510 1512 1513 1513 1515 1516 1517 1518 1520 1522 1522 1524 1525 1526
1508 1507 1506 1505 1504 1503 1501 1499 1498 1497 1496 1495 1494 1493 1492 1492 1491 1492 1491 1491 1492 1492 1492 1492 1492 1493 1492 1489 1488 1489 1489 1490 1491 1493 1494 1494 1495 1496 1497 1497 1498 1499 1501 1502 1503 1504 1505 1506 1505 1505 1504 1505 1507 1510 1514 1518 1518 1517 1521 1526 1526 1525 1523 1517 1513 1512 1513 1515 1515 1517 1522 1519 1514 1511 1510 1512 1513 1513 1515 1516 1517 1518 1519 1521 1522 1523 1524 1525
1507 1505 1504 1503 1503 1501 1500 1498 1497 1496 1494 1494 1493 1492 1491 1490 1490 1490 1490 1490 1490 1490 1491 1491 1491 1491 1490 1488 1488 1488 1488 1489 1491 1492 1493 1493 1495 1496 1497 1497 1498 1500 1500 1502 1503 1503 1504 1505 1505 1504 1504 1506 1508 1510 1519 1525 1523 1520 1523 1525 1523 1523 1523 1520 1515 1512 1512 1515 1517 1517 1519 1518 1514 1511 1510 1511 1512 1513 1514 1515 1516 1517 1519 1520 1522 1523 1523 1525
1506 1504 1503 1502 1501 1500 1499 1497 1496 1495 1493 1493 1492 1491 1490 1489 1489 1489 1489 1489 1489 1489 1490 1489 1490 1492 1490 1486 1486 1487 1487 1489 1490 1491 1492 1493 1494 1495 1496 1497 1498 1499 1500 1501 1501 1501 1503 1503 1503 1505 1506 1509 1509 1511 1520 1523 1519 1519 1522 1523 1522 1521 1521 1520 1516 1512 1512 1516 1518 1519 1520 1517 1513 1512 1511 1511 1512 1512 1512 1513 1514 1516 1518 1520 1521 1522 1522 1523
1505 1503 1502 1501 1500 1499 1497 1496 1495 1493 1492 1492 1491 1490 1489 1488 1488 1488 1488 1488 1487 1487 1488 1488 1488 1490 1489 1485 1485 1486 1487 1488 1489 1489 1490 1491 1493 1494 1495 1496 1497 1498 1499 1501 1501 1500 1501 1503 1505 1508 1509 1510 1510 1510 1513 1514 1513 1515 1517 1519 1520 1518 1517 1516 1514 1510 1511 1516 1519 1519 1519 1516 1513 1512 1511 1511 1512 1512 1512 1513 1514 1515 1516 1518 1519 1520 1521 1522
1504 1502 1501 1500 1499 1498 1496 1495 1494 1492 1492 1491 1490 1489 1488 1488 1487 1487 1487 1485 1485 1484 1483 1484 1484 1484 1484 1484 1485 1486 1486 1487 1487 1487 1489 1490 1491 1493 1494 1495 1496 1497 1499 1500 1501 1499 1500 1506 1509 1508 1507 1507 1507 1507 1508 1509 1510 1512 1515 1517 1518 1517 1514 1511 1511 1509 1508 1515 1518 1516 1517 1516 1513 1512 1510 1510 1511 1511 1512 1512 1513 1514 1515 1516 1517 1518 1519 1520
1503 1501 1500 1499 1497 1496 1495 1494 1493 1492 1491 1490 1490 1489 1488 1488 1488 1488 1486 1483 1481 1481 1480 1480 1481 1481 1481 1482 1483 1484 1485 1485 1485 1486 1487 1489 1490 1492 1493 1494 1497 1499 1499 1499 1500 1500 1501 1507 1507 1503 1502 1503 1504 1505 1505 1507 1509 1511 1514 1515 1516 1517 1514 1509 1511 1509 1506 1512 1516 1515 1518 1516 1512 1511 1510 1509 1510 1510 1510 1511 1512 1512 1514 1515 1515 1517 1518 1519
1502 1500 1499 1497 1496 1495 1494 1492 1492 1491 1490 1490 1489 1489 1488 1488 1489 1488 1487 1483 1478 1478 1478 1477 1478 1477 1477 1480 1481 1482 1484 1484 1484 1485 1486 1487 1489 1491 1492 1493 1497 1499 1498 1498 1502 1504 1506 1506 1502 1498 1499 1502 1503 1504 1505 1507 1509 1511 1513 1515 1516 1514 1512 1510 1511 1510 1508 1512 1515 1515 1518 1515 1510 1510 1509 1508 1508 1508 1508 1509 1510 1511 1512 1513 1514 1515 1516 1518
1501 1499 1498 1496 1495 1494 1492 1491 1490 1489 1489 1489 1489 1489 1488 1488 1488 1487 1487 1484 1476 1472 1473 1472 1473 1473 1474 1477 1478 1480 1482 1482 1483 1483 1484 1486 1487 1489 1491 1493 1496 1497 1498 1500 1503 1507 1509 1502 1496 1496 1498 1501 1503 1504 1506 1507 1509 1510 1513 1515 1514 1510 1511 1512 1513 1513 1511 1511 1514 1515 1517 1514 1509 1508 1507 1506 1505 1505 1506 1507 1508 1510 1510 1511 1512 1513 1514 1516
1499 1497 1496 1494 1493 1492 1491 1490 1489 1488 1488 1488 1488 1488 1488 1488 1488 1487 1486 1484 1477 1470 1468 1469 1470 1470 1471 1474 1476 1478 1480 1480 1481 1481 1482 1484 1486 1488 1490 1491 1494 1497 1498 1498 1500 1504 1503 1496 1493 1495 1498 1500 1503 1505 1506 1508 1510 1509 1509 1511 1508 1506 1509 1511 1512 1514 1513 1513 1512 1516 1520 1514 1509 1510 1507 1505 1506 1505 1505 1506 1507 1508 1509 1510 1511 1511 1513 1514
1498 1497 1495 1493 1492 1490 1489 1488 1487 1488 1487 1487 1487 1487 1488 1487 1487 1487 1485 1485 1480 1470 1466 1467 1468 1467 1468 1472 1474 1475 1477 1478 1478 1479 1480 1481 1484 1487 1488 1489 1493 1497 1498 1498 1500 1502 1498 1493 1492 1495 1498 1500 1502 1504 1504 1506 1509 1508 1503 1501 1500 1501 1506 1511 1513 1515 1522 1523 1513 1515 1526 1518 1508 1510 1508 1505 1507 1506 1505 1505 1505 1506 1507 1508 1509 1510 1511 1512
1497 1496 1493 1492 1490 1488 1488 1487 1486 1487 1485 1486 1486 1486 1487 1486 1486 1486 1485 1490 1486 1470 1466 1468 1467 1466 1466 1469 1472 1474 1480 1478 1474 1478 1479 1480 1482 1485 1488 1490 1490 1494 1495 1496 1499 1498 1494 1491 1491 1494 1497 1499 1502 1503 1500 1501 1508 1509 1498 1492 1495 1499 1504 1511 1512 1513 1523 1525 1513 1513 1525 1523 1511 1506 1507 1507 1508 1507 1504 1504 1503 1503 1505 1505 1506 1508 1509 1510
1496 1494 1492 1490 1488 1487 1487 1485 1486 1485 1484 1486 1485 1485 1487 1485 1487 1485 1486 1498 1490 1468 1465 1468 1467 1466 1465 1467 1468 1474 1482 1477 1472 1476 1477 1479 1482 1483 1488 1490 1490 1492 1490 1494 1501 1496 1491 1491 1493 1494 1496 1499 1502 1501 1496 1497 1505 1505 1492 1489 1495 1497 1501 1506 1507 1510 1516 1517 1515 1515 1518 1525 1520 1508 1508 1509 1508 1508 1506 1503 1501 1500 1502 1502 1504 1505 1506 1508
1495 1493 1491 1489 1487 1486 1485 1484 1484 1483 1484 1484 1483 1485 1486 1485 1488 1485 1492 1505 1487 1463 1464 1466 1464 1465 1465 1467 1468 1469 1474 1471 1473 1476 1474 1478 1481 1481 1486 1487 1487 1489 1486 1493 1503 1495 1488 1491 1492 1493 1497 1500 1498 1493 1491 1494 1499 1497 1490 1492 1495 1495 1499 1503 1507 1512 1514 1515 1522 1521 1517 1528 1527 1509 1508 1511 1510 1511 1506 1501 1500 1497 1499 1500 1501 1503 1504 1507
1493 1491 1488 1487 1486 1484 1483 1482 1482 1482 1483 1482 1482 1484 1484 1486 1486 1485 1498 1503 1477 1460 1464 1464 1464 1466 1465 1468 1469 1467 1468 1469 1472 1473 1472 1477 1479 1480 1484 1484 1483 1487 1486 1489 1495 1491 1487 1487 1487 1490 1495 1495 1490 1487 1487 1490 1494 1492 1491 1494 1496 1500 1503 1507 1511 1511 1514 1518 1522 1521 1518 1527 1526 1508 1507 1514 1510 1507 1501 1497 1497 1495 1496 1498 1499 1501 1503 1505
1492 1489 1487 1484 1483 1482 1481 1481 1481 1480 1481 1481 1482 1483 1483 1486 1486 1495 1510 1497 1470 1464 1464 1463 1466 1466 1466 1470 1471 1468 1469 1470 1470 1471 1473 1476 1477 1479 1481 1481 1482 1486 1488 1488 1489 1487 1484 1484 1485 1486 1488 1486 1483 1484 1485 1487 1490 1489 1492 1497 1502 1506 1505 1509 1512 1509 1520 1526 1517 1517 1517 1521 1526 1511 1504 1507 1501 1497 1496 1495 1496 1494 1495 1496 1496 1499 1501 1503
1490 1488 1485 1481 1480 1480 1478 1479 1479 1479 1480 1480 1481 1481 1483 1486 1490 1506 1509 1483 1467 1469 1465 1465 1467 1465 1468 1471 1472 1471 1470 1470 1469 1471 1475 1476 1478 1480 1481 1484 1485 1489 1493 1492 1490 1488 1485 1485 1485 1481 1479 1480 1481 1484 1485 1485 1488 1489 1493 1498 1504 1511 1511 1514 1515 1513 1528 1532 1517 1518 1518 1521 1529 1512 1497 1498 1493 1491 1493 1492 1493 1492 1492 1493 1494 1497 1499 1501
1487 1485 1483 1479 1478 1477 1477 1477 1477 1478 1479 1479 1480 1480 1483 1492 1499 1503 1492 1473 1472 1473 1466 1468 1468 1465 1469 1470 1471 1471 1470 1472 1470 1471 1474 1476 1480 1481 1481 1484 1485 1493 1501 1496 1492 1491 1486 1484 1482 1478 1476 1477 1482 1488 1489 1488 1489 1491 1494 1498 1507 1520 1524 1526 1528 1528 1533 1526 1517 1520 1520 1523 1525 1504 1492 1495 1490 1489 1490 1488 1489 1489 1489 1490 1491 1494 1497 1500
1485 1483 1480 1477 1475 1475 1475 1475 1475 1477 1478 1478 1480 1479 1484 1499 1502 1492 1481 1476 1475 1470 1465 1468 1466 1465 1469 1471 1472 1470 1470 1473 1471 1471 1473 1475 1480 1480 1479 1480 1480 1487 1495 1495 1495 1495 1491 1484 1480 1479 1477 1473 1478 1488 1492 1491 1492 1493 1494 1497 1508 1523 1534 1539 1542 1541 1534 1522 1516 1519 1518 1521 1516 1498 1491 1492 1488 1487 1487 1486 1487 1487 1488 1488 1489 1492 1495 1498
1483 1480 1478 1475 1474 1473 1473 1473 1474 1475 1476 1477 1479 1481 1490 1501 1495 1482 1480 1477 1472 1468 1466 1467 1466 1466 1467 1469 1469 1467 1470 1474 1470 1472 1475 1476 1482 1482 1480 1480 1478 1480 1486 1493 1495 1495 1498 1493 1480 1478 1477 1472 1474 1478 1482 1485 1489 1492 1491 1492 1500 1510 1522 1531 1532 1531 1527 1522 1521 1521 1519 1518 1511 1498 1491 1487 1486 1487 1486 1486 1487 1486 1486 1487 1488 1491 1493 1496
1481 1479 1477 1475 1474 1473 1472 1472 1473 1474 1476 1476 1479 1485 1493 1495 1487 1482 1481 1475 1471 1470 1468 1466 1467 1468 1469 1468 1466 1463 1467 1472 1470 1472 1476 1478 1480 1480 1478 1478 1477 1479 1483 1493 1494 1492 1499 1494 1475 1470 1471 1469 1472 1471 1471 1479 1489 1493 1491 1492 1497 1495 1499 1514 1521 1519 1518 1520 1523 1522 1516 1509 1502 1493 1488 1487 1487 1487 1486 1486 1486 1485 1485 1486 1488 1490 1492 1494
1479 1477 1476 1475 1474 1473 1472 1472 1472 1473 1475 1476 1481 1488 1488 1483 1480 1479 1476 1472 1472 1472 1470 1469 1467 1470 1472 1470 1468 1465 1463 1467 1471 1474 1476 1478 1477 1476 1475 1473 1472 1475 1478 1485 1490 1490 1495 1488 1471 1469 1469 1466 1468 1468 1468 1476 1485 1492 1493 1492 1492 1487 1489 1506 1520 1520 1518 1521 1523 1521 1514 1505 1500 1493 1488 1488 1488 1487 1488 1487 1485 1486 1485 1486 1488 1489 1492 1494
1477 1476 1475 1475 1474 1473 1473 1472 1472 1473 1474 1476 1482 1486 1482 1477 1475 1475 1473 1471 1472 1471 1473 1475 1470 1469 1472 1471 1469 1467 1464 1467 1471 1474 1477 1479 1475 1471 1471 1469 1468 1469 1469 1474 1481 1482 1487 1485 1471 1469 1471 1466 1465 1467 1468 1469 1476 1487 1492 1487 1485 1488 1490 1498 1513 1522 1526 1527 1523 1520 1519 1513 1508 1501 1491 1488 1489 1487 1488 1487 1486 1486 1486 1487 1489 1490 1493 1494
1476 1475 1474 1474 1474 1473 1473 1472 1472 1474 1475 1478 1482 1482 1480 1476 1473 1472 1472 1471 1472 1471 1474 1478 1472 1468 1471 1472 1469 1466 1465 1469 1472 1474 1476 1478 1473 1465 1465 1467 1465 1464 1463 1467 1476 1477 1480 1486 1477 1469 1471 1468 1464 1469 1475 1473 1471 1477 1481 1478 1482 1494 1497 1498 1509 1519 1527 1533 1526 1521 1523 1517 1509 1502 1491 1488 1490 1487 1487 1488 1487 1486 1486 1488 1490 1491 1493 1495
1475 1474 1474 1474 1474 1474 1473 1473 1473 1474 1476 1480 1484 1481 1478 1476 1472 1471 1471 1470 1471 1472 1473 1475 1471 1469 1470 1470 1468 1465 1465 1467 1471 1473 1473 1474 1472 1463 1460 1462 1461 1461 1462 1465 1473 1474 1477 1486 1484 1472 1468 1469 1468 1472 1480 1480 1476 1474 1476 1478 1481 1489 1494 1497 1503 1507 1515 1529 1530 1524 1522 1512 1499 1494 1488 1486 1487 1485 1486 1487 1486 1486 1486 1487 1489 1491 1493 1494
1475 1474 1474 1474 1474 1474 1474 1474 1475 1476 1477 1481 1483 1479 1476 1475 1472 1470 1471 1470 1470 1471 1472 1472 1472 1472 1470 1467 1466 1465 1464 1465 1468 1470 1469 1469 1469 1463 1458 1458 1459 1460 1462 1464 1469 1472 1475 1484 1486 1476 1470 1473 1475 1473 1474 1476 1477 1478 1482 1485 1485 1488 1492 1494 1500 1503 1505 1517 1528 1528 1522 1504 1489 1487 1485 1482 1483 1483 1483 1484 1485 1485 1485 1486 1489 1490 1492 1494
1475 1475 1475 1475 1474 1474 1475 1475 1476 1477 1478 1480 1480 1477 1476 1474 1472 1470 1470 1470 1470 1469 1469 1469 1470 1471 1469 1468 1466 1463 1463 1465 1465 1467 1467 1465 1466 1463 1456 1452 1454 1458 1462 1468 1470 1470 1475 1481 1483 1479 1475 1476 1473 1468 1466 1467 1470 1474 1479 1482 1483 1486 1492 1499 1508 1508 1503 1508 1519 1524 1519 1500 1484 1483 1483 1480 1480 1480 1481 1482 1483 1484 1485 1486 1488 1489 1491 1493
1476 1476 1476 1475 1475 1475 1475 1476 1477 1478 1478 1479 1477 1476 1475 1473 1472 1470 1468 1468 1468 1466 1466 1466 1466 1467 1467 1466 1465 1462 1462 1463 1463 1464 1463 1461 1462 1460 1452 1448 1451 1454 1458 1465 1466 1463 1467 1476 1480 1479 1475 1473 1470 1466 1466 1466 1465 1470 1474 1477 1480 1482 1485 1495 1505 1505 1506 1512 1515 1517 1515 1497 1482 1482 1481 1480 1480 1479 1481 1482 1482 1484 1484 1486 1487 1488 1491 1492
1477 1476 1475 1475 1476 1475 1476 1478 1478 1478 1477 1476 1475 1474 1474 1472 1471 1470 1468 1468 1467 1465 1466 1465 1463 1463 1462 1461 1462 1462 1461 1460 1460 1460 1459 1459 1456 1452 1448 1447 1450 1452 1456 1461 1462 1460 1464 1474 1480 1479 1475 1471 1468 1465 1465 1465 1466 1471 1475 1476 1478 1479 1479 1485 1491 1494 1502 1513 1511 1514 1516 1497 1481 1481 1481 1479 1480 1480 1481 1482 1483 1484 1484 1485 1487 1488 1489 1491
1477 1476 1475 1475 1475 1475 1477 1479 1479 1479 1477 1476 1475 1474 1473 1471 1470 1469 1468 1468 1466 1465 1465 1463 1460 1459 1457 1456 1458 1458 1457 1459 1459 1456 1456 1457 1452 1446 1446 1447 1449 1452 1453 1455 1456 1457 1465 1474 1480 1484 1487 1484 1479 1477 1474 1471 1470 1472 1475 1475 1475 1477 1479 1483 1488 1490 1498 1508 1505 1508 1511 1495 1481 1482 1481 1479 1480 1480 1481 1482 1482 1484 1484 1485 1486 1487 1488 1490
1477 1476 1475 1475 1475 1475 1477 1478 1479 1479 1479 1478 1477 1475 1473 1471 1469 1469 1468 1466 1464 1463 1463 1460 1456 1456 1455 1455 1456 1455 1454 1455 1457 1456 1455 1456 1451 1445 1445 1447 1448 1449 1448 1448 1448 1450 1460 1469 1473 1482 1493 1495 1492 1487 1480 1474 1473 1473 1473 1474 1474 1476 1477 1481 1488 1492 1497 1506 1505 1501 1500 1490 1482 1482 1480 1479 1481 1480 1481 1482 1482 1483 1485 1485 1486 1487 1488 1490
1479 1478 1477 1477 1475 1476 1478 1478 1479 1480 1480 1481 1479 1475 1474 1473 1469 1467 1466 1464 1462 1461 1460 1457 1454 1455 1455 1455 1456 1455 1453 1452 1455 1455 1455 1455 1451 1447 1445 1446 1447 1447 1445 1445 1445 1449 1457 1464 1465 1470 1477 1479 1475 1471 1467 1466 1470 1472 1473 1473 1473 1475 1475 1478 1487 1491 1492 1502 1504 1494 1490 1489 1484 1483 1481 1479 1480 1481 1481 1481 1481 1482 1484 1485 1486 1487 1488 1489
1483 1483 1484 1482 1479 1478 1479 1479 1480 1481 1481 1482 1480 1476 1475 1475 1471 1468 1465 1463 1462 1461 1458 1455 1454 1456 1457 1455 1456 1456 1454 1454 1454 1454 1455 1455 1452 1448 1446 1445 1446 1445 1443 1443 1444 1449 1457 1462 1463 1464 1464 1464 1463 1462 1461 1462 1464 1467 1469 1471 1473 1475 1475 1476 1482 1485 1486 1496 1500 1490 1488 1489 1484 1481 1480 1478 1479 1480 1480 1479 1480 1482 1483 1484 1486 1487 1488 1489
1484 1486 1487 1487 1485 1484 1482 1481 1482 1482 1482 1481 1480 1477 1476 1476 1476 1474 1469 1464 1462 1462 1460 1457 1456 1458 1457 1455 1455 1455 1455 1457 1457 1455 1455 1455 1453 1450 1447 1445 1445 1443 1442 1444 1445 1448 1454 1458 1462 1464 1463 1463 1465 1466 1464 1461 1461 1463 1466 1468 1472 1475 1474 1473 1477 1480 1480 1484 1487 1483 1485 1486 1480 1476 1476 1475 1475 1476 1477 1479 1480 1481 1483 1484 1485 1487 1488 1489
1486 1487 1487 1487 1487 1487 1485 1484 1483 1482 1481 1480 1479 1479 1479 1478 1478 1477 1473 1468 1464 1463 1463 1464 1462 1458 1456 1454 1453 1454 1456 1458 1459 1457 1455 1455 1454 1453 1452 1449 1447 1443 1442 1445 1447 1448 1452 1457 1460 1462 1462 1462 1464 1466 1466 1463 1462 1463 1465 1465 1468 1472 1472 1471 1475 1479 1478 1477 1478 1479 1481 1479 1474 1473 1473 1473 1474 1476 1477 1480 1481 1481 1482 1483 1484 1486 1487 1489
1488 1489 1489 1488 1487 1486 1485 1484 1483 1483 1481 1480 1481 1481 1480 1480 1479 1477 1474 1472 1470 1466 1464 1467 1465 1458 1455 1454 1454 1456 1458 1458 1458 1456 1453 1454 1454 1453 1454 1453 1450 1446 1445 1446 1449 1448 1451 1457 1460 1458 1461 1465 1463 1463 1466 1466 1463 1463 1467 1468 1467 1471 1474 1474 1475 1479 1479 1479 1481 1483 1483 1478 1472 1471 1473 1473 1475 1476 1477 1480 1480 1481 1482 1482 1483 1485 1487 1489
1491 1491 1491 1491 1489 1486 1485 1485 1484 1484 1483 1483 1484 1483 1481 1480 1480 1479 1473 1470 1471 1469 1467 1468 1466 1459 1455 1454 1454 1456 1458 1457 1456 1453 1451 1452 1451 1449 1450 1450 1450 1450 1448 1448 1450 1448 1450 1458 1459 1457 1464 1468 1464 1463 1467 1466 1464 1465 1468 1470 1469 1470 1473 1473 1473 1474 1474 1477 1483 1487 1485 1477 1471 1470 1472 1473 1474 1475 1477 1478 1479 1480 1481 1482 1483 1485 1487 1488
1491 1492 1492 1493 1491 1488 1487 1486 1485 1485 1485 1486 1485 1485 1483 1481 1480 1479 1475 1469 1468 1468 1468 1467 1465 1461 1458 1456 1456 1456 1456 1454 1453 1451 1449 1449 1448 1446 1446 1446 1447 1449 1450 1450 1451 1452 1454 1456 1457 1459 1465 1467 1466 1467 1466 1465 1472 1474 1467 1464 1466 1467 1469 1470 1470 1470 1469 1471 1477 1479 1474 1469 1468 1469 1471 1473 1474 1474 1475 1475 1477 1479 1480 1482 1483 1485 1486 1488